LO-74
1 39440U 13066AA 21245.44964728 .00000486 00000-0 73792-4 0 9994
2 39440 97.6833 211.0239 0079521 346.8794 13.0347 14.76302981417787
AO-73
1 39444U 13066AE 21245.51533859 .00000479 00000-0 64546-4 0 9992
2 39444 97.5897 228.2541 0055952 258.2654 101.2280 14.82502131418850
SPROUT
1 39770U 14029E 21245.58018498 .00001269 00000-0 14222-3 0 9991
2 39770 97.9211 356.8183 0007994 321.9255 38.1370 14.88606730394817
DTUSAT-2
1 40030U 14033W 21245.76795809 .00000447 00000-0 53463-4 0 9993
2 40030 97.9149 172.9988 0010386 283.1358 76.8700 14.89061436391339
EO-80
1 40032U 14033Y 21245.53172803 .00000494 00000-0 58515-4 0 9998
2 40032 97.9155 172.7705 0010337 285.2071 74.8003 14.89020741390768
HODOYOSHI-1
1 40299U 14070B 21245.81371573 .00001486 00000-0 62386-4 0 9993
2 40299 97.2808 317.2878 0014483 76.5532 62.8440 15.24895855379201
FIREBIRD FU3
1 40377U 15003B 21245.56616454 .00004117 00000-0 14993-3 0 9993
2 40377 99.1090 43.0310 0115138 274.4049 84.4035 15.22968879364522
FIREBIRD FU4
1 40378U 15003C 21245.67132519 .00004084 00000-0 14849-3 0 9994
2 40378 99.1097 43.3122 0115179 273.8466 84.9603 15.23022447364557
GRIFEX
1 40379U 15003D 21245.50994301 .00002303 00000-0 95251-4 0 9991
2 40379 99.1055 31.7574 0126364 308.9577 50.0446 15.18472450363886
NO-84
1 40654U 15025D 21244.51544224 .00049465 00000-0 27886-3 0 1367
2 40654 54.9764 40.9690 0061432 268.7379 90.6566 15.75977223 19024
XW-2A
1 40903U 15049E 21245.74481396 .00004893 00000-0 10214-3 0 9996
2 40903 97.2293 299.9905 0014024 92.9332 47.5100 15.45906327334731
XW-2C
1 40906U 15049H 21245.81617075 .00001530 00000-0 80939-4 0 9999
2 40906 97.4890 247.2179 0012805 281.5462 201.6106 15.16916942329299
XW-2D
1 40907U 15049J 21245.52866001 .00001891 00000-0 98261-4 0 9990
2 40907 97.4877 246.7549 0012080 278.4745 198.9542 15.17261482329288
LILACSAT-2
1 40908U 15049K 21245.52556369 .00001106 00000-0 63487-4 0 9995
2 40908 97.5070 244.4835 0014211 296.7994 181.5038 15.14544645328891
XW-2E
1 40909U 15049L 21245.55282094 .00002603 00000-0 12454-3 0 9990
2 40909 97.4683 250.8875 0011193 261.7605 217.3483 15.19827799329648
XW-2F
1 40910U 15049M 21245.84529144 .00002438 00000-0 11850-3 0 9999
2 40910 97.4750 250.2606 0012522 260.4162 220.6462 15.19327703329477
XW-2B
1 40911U 15049N 21245.73069233 .00001800 00000-0 93916-4 0 9992
2 40911 97.4873 247.6253 0011930 278.6819 182.9253 15.17175986329205
DCBB
1 40912U 15049P 21245.78824797 .00002697 00000-0 12135-3 0 9990
2 40912 97.4454 254.5870 0012718 227.5780 307.4885 15.21904037329957
TW-1A
1 40928U 15051D 21245.81499204 .00007628 00000-0 15381-3 0 9990
2 40928 97.0743 268.8872 0009820 21.2831 153.7907 15.46766826333644
IO-86
1 40931U 15052B 21243.44520573 .00000787 00000-0 20485-4 0 9997
2 40931 5.9974 77.5200 0013446 22.1349 337.9379 14.76686881320408
ATHENOXAT-1
1 41168U 15077C 21245.58222279 .00004598 00000-0 19616-3 0 9993
2 41168 14.9856 53.8242 0010454 171.5179 255.2990 15.16032591316504
ChubuSat-2
1 41338U 16012B 21245.56388652 .00000620 00000-0 41135-4 0 9992
2 41338 31.0035 55.5462 0013568 178.6762 181.3911 15.00588416304199
ChubuSat-3
1 41339U 16012C 21245.77899633 .00000616 00000-0 40685-4 0 9996
2 41339 31.0117 51.3303 0013270 188.8023 171.2385 15.00732010304220
Horyu-4
1 41340U 16012D 21245.51123983 .00000986 00000-0 66835-4 0 9993
2 41340 31.0059 35.6367 0013752 219.0477 140.9166 15.01989627304383
e-st@r-II
1 41459U 16025D 21245.83728593 .00004979 00000-0 24119-3 0 9995
2 41459 98.1526 26.7184 0159572 161.2478 199.4710 15.08489115294088
AAUSAT4
1 41460U 16025E 21245.70431098 .00007614 00000-0 34794-3 0 9993
2 41460 98.1524 30.8540 0145993 144.3141 216.7927 15.11785899294389
LO-87
1 41557U 16033B 21245.85608160 .00003091 00000-0 10951-3 0 9995
2 41557 97.3932 339.3806 0011888 326.9780 152.4790 15.29819543293368
NuSat2
1 41558U 16033C 21245.82263127 .00003126 00000-0 10385-3 0 9993
2 41558 97.4057 343.5308 0010651 319.4016 193.8769 15.31918392293560
Lapan A3
1 41603U 16040E 21245.81284527 .00000275 00000-0 15747-4 0 9998
2 41603 97.2501 289.7805 0015100 90.8337 21.4664 15.20086184288338
Pratham
1 41783U 16059A 21245.53637796 .00000084 00000-0 25340-4 0 9994
2 41783 97.9579 292.9742 0033558 5.3251 354.8302 14.63162034263529
TY-1
1 41844U 16066D 21245.84450323 .00001904 00000-0 76702-4 0 9993
2 41844 97.3998 255.2693 0013148 220.1890 263.3979 15.26017691267708
CAS-2T
1 41847U 16066G 21245.42062143 .00000105 00000-0 26432-4 0 9996
2 41847 98.5948 304.8402 0364933 350.8144 8.6485 14.38230893252947
EO-88
1 42017U 17008BX 21245.75009635 .00003698 00000-0 13544-3 0 9995
2 42017 97.3105 311.9632 0005888 177.3091 182.8182 15.28622457253061
CAS-4B
1 42759U 17034B 21245.80699214 .00000916 00000-0 68169-4 0 9995
2 42759 43.0174 115.7831 0009753 287.9500 162.5618 15.10338359232845
CAS-4A
1 42761U 17034D 21245.86307639 .00000915 00000-0 67930-4 0 9995
2 42761 43.0177 114.4700 0009958 291.6421 177.7840 15.10426709232856
NIUSat
1 42766U 17036B 21245.58735738 .00002094 00000-0 91767-4 0 9991
2 42766 97.2444 288.8677 0013116 262.7830 97.1916 15.23002129232952
Aalto 1
1 42775U 17036L 21245.56406331 .00001680 00000-0 74459-4 0 9992
2 42775 97.2408 289.0539 0011684 262.1184 97.8727 15.22900455232939
URSA MAIOR
1 42776U 17036M 21245.74969219 .00001831 00000-0 80222-4 0 9995
2 42776 97.2422 289.7446 0011464 260.4564 99.5377 15.23187953232985
Max Valier Sat
1 42778U 17036P 21245.59749569 .00001983 00000-0 84959-4 0 9993
2 42778 97.2491 291.6633 0009947 262.5078 97.5030 15.23873442233035
Pegasus
1 42784U 17036V 21245.75329085 .00002601 00000-0 10771-3 0 9993
2 42784 97.2443 292.3337 0009535 265.3648 94.6501 15.24756143233136
NUDATSat
1 42787U 17036Y 21245.59166047 .00004503 00000-0 17315-3 0 9999
2 42787 97.2469 294.8474 0008729 258.2500 101.7748 15.26873785233102
SUCHAI 1
1 42788U 17036Z 21245.57941436 .00003121 00000-0 12546-3 0 9997
2 42788 97.2454 293.2588 0009001 261.7609 98.2609 15.25613138233243
SKCUBE
1 42789U 17036AA 21245.36023902 .00002693 00000-0 10958-3 0 9992
2 42789 97.2447 292.7204 0008936 263.8318 96.1902 15.25316989233114
VZLUSAT 1
1 42790U 17036AB 21245.58713446 .00003918 00000-0 15118-3 0 9991
2 42790 97.2480 294.8325 0008317 255.8636 104.1679 15.26838457233253
VENTA 1
1 42791U 17036AC 21245.54142272 .00002769 00000-0 11286-3 0 9996
2 42791 97.2442 292.8998 0008640 263.7487 96.2767 15.25242809233132
Robusta 1B
1 42792U 17036AD 21245.57905625 .00003073 00000-0 12373-3 0 9996
2 42792 97.2450 293.3429 0008504 262.5225 97.5048 15.25577607233181
D-SAT
1 42794U 17036AF 21245.57115316 .00000615 00000-0 58166-4 0 9998
2 42794 97.4603 261.3598 0124456 328.8746 30.5142 14.91662981228555
TechnoSat
1 42829U 17042E 21245.61561166 .00000168 00000-0 22056-4 0 9999
2 42829 97.4583 111.0117 0012616 247.4727 112.5157 14.91331788225189
QIKCOM-1
1 42983U 98067NF 21245.65886522 .00011885 00000-0 10861-3 0 9994
2 42983 51.6342 226.6830 0001996 297.0648 63.0145 15.68323876219513
AO-91
1 43017U 17073E 21245.49603316 .00001673 00000-0 13234-3 0 9992
2 43017 97.6980 146.4021 0255759 49.1953 313.1139 14.79684942204515
EcAMSat
1 43019U 98067NG 21245.55358648 .00055541 00000-0 22986-3 0 9995
2 43019 51.6370 183.8896 0000459 97.4006 262.7050 15.85273669302399
PICSAT
1 43132U 18004X 21245.82626180 .00002565 00000-0 10198-3 0 9993
2 43132 97.4050 319.6733 0007370 300.8117 59.2395 15.26193551202486
